Content
SEND FEEDBACK

Daily
Averages
Monthly
Summary
Denmark

ARHUS, DENMARK


Home > Europe > Denmark
Elevation: 82 feet     Latitude: 56 18N     Longitude: 010 37E

WEATHER
 
SELECT A DAY
Number of Records: 302,595;   Date Range: 7/1/96 - 7/11/14
 
SHARE

PRINT THIS DATA

[ ← Previous Day ]
WEATHER ALMANAC - JANUARY 31, 2013
[ Next Day → ]
[ °C ]   °F
Weather ElementAverageHighLow
Temperature40.5 °F44.6 °F (5:50 am)32 °F (10:20 pm)
Dewpoint34.7 °F39.2 °F (3:50 am)30.2 °F (10:20 pm)
Humidity79.4 %93 % (7:50 pm)59 % (1:00 pm)
Barometer29.28 in29.40 in (1:00 pm)29.09 in (2:20 am)
Wind Speed18 mph42.6 mph (8:20 am)
Wind Gust67.9 mph (8:20 am)
Weather ElementAverage
Visibility5.9 mi
Wind DirectionWSW (249.6 °)

Weather ElementTotal
Precipitation---
Heating Degree Days26.7 (Base 65)
Averaged from 55 records on January 31, 2013
WEATHER CONDITIONS BREAKOUT
WIND DIRECTION BREAKOUT
WEATHER BY HOUR - JANUARY 31, 2013
[ °C ]   °F
Local TimeTemperatureDewpointHumidityBarometerVisibilityWind DirectionWind SpeedGust SpeedPrecipitationEventsConditions
12:50 AM41.0 °F35.6 °F81 %29.15 in5.6 miWSW (250°)17.3 mph38.0 mphRainLight Rain
1:00 AM40.0 °F36.0 °F80 %29.15 in7.0 miWSW (240°)18.4 mphRainLight Rain
1:20 AM41.0 °F35.6 °F81 %29.12 in6.2 miWSW (250°)17.3 mph32.2 mphRainLight Rain Showers
1:50 AM41.0 °F35.6 °F81 %29.12 in5.0 miWSW (250°)18.4 mph32.2 mphRainLight Rain Showers
2:20 AM41.0 °F37.4 °F87 %29.09 in3.7 miWSW (250°)18.4 mph34.5 mphRainLight Rain
2:50 AM41.0 °F37.4 °F87 %29.09 in3.7 miWest (260°)19.6 mph33.4 mphRainLight Rain Showers
3:20 AM42.8 °F37.4 °F81 %29.09 in6.2 miWest (260°)18.4 mph29.9 mphMostly Cloudy
3:50 AM42.8 °F39.2 °F87 %29.09 in4.3 miWest (260°)25.3 mph43.7 mphRainLight Rain Showers
4:00 AM43.0 °F38.0 °F77 %29.12 in4.0 miWest (260°)25.3 mphRainLight Rain Showers
4:20 AM42.8 °F39.2 °F87 %29.09 inWest (270°)26.5 mph40.3 mphDrizzle
4:50 AM42.8 °F39.2 °F87 %29.12 in3.7 miWest (270°)26.5 mph41.4 mphLight Drizzle
5:20 AM42.8 °F39.2 °F87 %29.12 inWest (270°)29.9 mph47.2 mphDrizzle
5:50 AM44.6 °F37.4 °F76 %29.15 in6.2 miWest (280°)34.5 mph55.2 mphMostly Cloudy
6:20 AM44.6 °F37.4 °F76 %29.15 in6.2 miWest (280°)35.7 mph49.5 mphMostly Cloudy
6:50 AM44.6 °F35.6 °F71 %29.18 in6.2 miWest (280°)39.1 mph59.8 mphMostly Cloudy
7:00 AM44.0 °F36.0 °F63 %29.18 in9.0 miWest (270°)40.3 mph
7:20 AM44.6 °F35.6 °F71 %29.18 in6.2 miWest (280°)38.0 mph58.7 mphScattered Clouds
7:50 AM42.8 °F33.8 °F70 %29.21 in6.2 miWest (280°)38.0 mph54.1 mphScattered Clouds
8:20 AM42.8 °F33.8 °F70 %29.27 in6.2 miWNW (290°)42.6 mph67.9 mphScattered Clouds
8:50 AM42.8 °F33.8 °F70 %29.30 in6.2 miWNW (290°)34.5 mph58.7 mphMostly Cloudy
9:20 AM42.8 °F33.8 °F70 %29.33 in6.2 miWNW (300°)29.9 mph43.7 mphMostly Cloudy
9:50 AM42.8 °F33.8 °F70 %29.33 in6.2 miWNW (290°)31.1 mph47.2 mphMostly Cloudy
10:00 AM43.0 °F34.0 °F61 %29.34 in6.0 miWNW (290°)29.9 mph
10:20 AM42.8 °F33.8 °F70 %29.33 in6.2 miWest (280°)27.6 mph40.3 mphMostly Cloudy
10:50 AM44.6 °F33.8 °F66 %29.36 in6.2 miWest (280°)26.5 mph41.4 mphMostly Cloudy
11:20 AM44.6 °F33.8 °F66 %29.36 in6.2 miWest (280°)28.8 mph46.0 mphMostly Cloudy
11:50 AM44.6 °F33.8 °F66 %29.39 in6.2 miWest (270°)26.5 mph39.1 mphMostly Cloudy
12:20 PM44.6 °F35.6 °F71 %29.39 in6.2 miWest (280°)23.0 mphMostly Cloudy
12:50 PM44.6 °F33.8 °F66 %29.39 in6.2 miWest (280°)19.6 mphMostly Cloudy
1:00 PM44.0 °F34.0 °F59 %29.40 in7.0 miWest (270°)17.3 mph
1:20 PM44.6 °F33.8 °F66 %29.39 in6.2 miWest (270°)16.1 mphMostly Cloudy
1:50 PM42.8 °F33.8 °F70 %29.39 in6.2 miWest (270°)15.0 mphMostly Cloudy
2:20 PM42.8 °F35.6 °F76 %29.36 in6.2 miWSW (250°)10.4 mphMostly Cloudy
2:50 PM41.0 °F37.4 °F87 %29.36 in6.2 miWest (260°)10.4 mphRainLight Rain Showers
3:20 PM41.0 °F37.4 °F87 %29.36 in6.2 miWSW (250°)9.2 mphMostly Cloudy
3:50 PM41.0 °F35.6 °F81 %29.33 in6.2 miWSW (250°)6.9 mphMostly Cloudy
4:00 PM40.0 °F36.0 °F79 %29.35 in6.0 miWSW (240°)8.1 mph
4:20 PM39.2 °F35.6 °F87 %29.33 in6.2 miWSW (240°)8.1 mphMostly Cloudy
4:50 PM39.2 °F35.6 °F87 %29.33 in6.2 miWSW (250°)6.9 mphOvercast
5:20 PM39.2 °F33.8 °F81 %29.33 in6.2 miWest (260°)8.1 mphMostly Cloudy
5:50 PM37.4 °F32.0 °F81 %29.30 in6.2 miWSW (250°)5.8 mphOvercast
6:20 PM37.4 °F32.0 °F81 %29.30 in6.2 miWSW (250°)6.9 mphOvercast
6:50 PM37.4 °F33.8 °F87 %29.33 in6.2 miWest (260°)8.1 mphMostly Cloudy
7:00 PM37.0 °F33.0 °F79 %29.33 in17.0 miWSW (250°)8.1 mph
7:20 PM37.4 °F33.8 °F87 %29.33 in6.2 miWest (260°)8.1 mphMostly Cloudy
7:50 PM35.6 °F33.8 °F93 %29.33 in6.2 miWest (260°)5.8 mphMostly Cloudy
8:20 PM35.6 °F32.0 °F87 %29.33 in6.2 miWSW (240°)4.6 mphMostly Cloudy
8:50 PM33.8 °F32.0 °F93 %29.33 in6.2 miWSW (240°)3.5 mphMostly Cloudy
9:20 PM33.8 °F32.0 °F93 %29.33 in5.0 miWSW (240°)2.3 mphMostly Cloudy
9:50 PM33.8 °F32.0 °F93 %29.33 in4.3 miCalmMostly Cloudy
10:00 PM34.0 °F31.0 °F86 %29.36 in4.0 miCalmMist
10:20 PM32.0 °F30.2 °F93 %29.36 inCalmFogLight Freezing Fog
10:50 PM32.0 °F30.2 °F93 %29.36 in0.2 miCalmPartly Cloudy
11:20 PM32.0 °F30.2 °F93 %29.36 in3.1 miWest (260°)5.8 mphMostly Cloudy
11:50 PM35.6 °F33.8 °F93 %29.39 in5.0 miWest (270°)8.1 mphMostly Cloudy
Hourly data recorded from EKAH, located miles away from Arhus, Denmark







STORIES FROM OUR PARTNERS